Location: ??????????
(48.4699°N, 37.9573°E)
Time: 13:38:53
(UTC+00:00)

CZ-2C R/B - Pass Details

Date: 20 January 2021
Orbit: 785 x 870 km, 98.2° (Epoch: 27 February)

Event Time Altitude Azimuth Distance (km) Brightness Sun altitude
Exits shadow 17:45:50 38° 258° (WSW) 1,288 3.9 -35.6°
Drops below altitude 10° 17:49:48 10° 222° (SW) 2,504 5.4 -36.3°
Sets 17:52:17 0° 216° (SW) 3,442 6.2 -36.7°
